Weather History for Molokai, HI

Change the Weather History Date:

Tuesday, February 19, 2013

  Actual Average Record
Temperature  
Mean Temperature 70 °F -  
Max Temperature 75 °F 78 °F 89 °F (1991)
Min Temperature 66 °F 63 °F 54 °F (1957)
Cooling Degree Days 6    
Growing Degree Days 20 (Base 50)    
Moisture  
Dew Point 59 °F    
Average Humidity 68    
Maximum Humidity 78    
Minimum Humidity 53    
Precipitation  
Precipitation 0.00 in - - ()
Sea Level Pressure  
Sea Level Pressure 30.12 in    
Wind  
Wind Speed 16 mph (NE)    
Max Wind Speed 24 mph    
Max Gust Speed 34 mph    
Visibility 10 miles    
Events Rain    
Averages and records for this station are not official NWS values.
T = Trace of Precipitation, MM = Missing Value Source: NWS Daily Summary

Daily Weather History Graph

Daily Weather History Graph

Search for Another Location

Airport:

Trip Planner

Search our weather history database for the weather conditions in past years. The results will help you decide how hot, cold, wet, or windy it might be!

Date:

Astronomy

Feb. 19, 2013 Rise Set
Actual Time 6:55 AM HST 6:28 PM HST
Civil Twilight 6:33 AM HST 6:51 PM HST
Nautical Twilight 6:07 AM HST 7:17 PM HST
Astronomical Twilight 5:41 AM HST 7:43 PM HST
Moon 1:31 PM HST (2/19) 2:15 AM HST (2/19)
Length of Visible Light 12h 17m
Length of Day
11h 32m
Waxing Gibbous, 69% of the Moon is Illuminated
Feb 19
Waxing Gibbous
Feb 25
Full
Mar 4
Last Quarter
Mar 11
New
Mar 19
First Quarter

Hourly Weather History & Observations

Time (HST) Temp. Dew Point Humidity Pressure Visibility Wind Dir Wind Speed Gust Speed Precip Events Conditions
12:54 AM 68.0 °F 59.0 °F 73% 30.15 in 10.0 mi NE 12.7 mph 28.8 mph N/A   Partly Cloudy
1:54 AM 68.0 °F 57.9 °F 70% 30.15 in 10.0 mi NE 15.0 mph 20.7 mph N/A   Clear
2:54 AM 68.0 °F 59.0 °F 73% 30.13 in 10.0 mi NE 20.7 mph 32.2 mph 0.00 in Rain Light Rain
3:54 AM 68.0 °F 55.9 °F 65% 30.14 in 10.0 mi NE 16.1 mph 34.5 mph 0.00 in   Partly Cloudy
4:54 AM 68.0 °F 55.9 °F 65% 30.14 in 10.0 mi NE 12.7 mph 21.9 mph N/A   Scattered Clouds
5:54 AM 68.0 °F 55.0 °F 63% 30.14 in 10.0 mi NE 17.3 mph 25.3 mph N/A   Scattered Clouds
6:54 AM 66.9 °F 53.1 °F 61% 30.16 in 10.0 mi NE 15.0 mph 21.9 mph N/A   Partly Cloudy
10:54 AM 73.9 °F 60.1 °F 62% 30.16 in 10.0 mi NE 16.1 mph 33.4 mph N/A   Partly Cloudy
11:54 AM 73.9 °F 60.1 °F 62% 30.14 in 10.0 mi NE 18.4 mph 32.2 mph N/A   Scattered Clouds
12:54 PM 75.0 °F 60.1 °F 60% 30.11 in 10.0 mi NE 24.2 mph 33.4 mph N/A   Scattered Clouds
2:54 PM 75.0 °F 57.0 °F 53% 30.07 in 10.0 mi NE 21.9 mph 34.5 mph N/A   Partly Cloudy
3:54 PM 73.0 °F 60.1 °F 64% 30.07 in 10.0 mi NE 23.0 mph 31.1 mph N/A   Scattered Clouds
4:54 PM 72.0 °F 60.1 °F 66% 30.08 in 10.0 mi NE 17.3 mph 32.2 mph N/A   Scattered Clouds
5:54 PM 70.0 °F 59.0 °F 68% 30.09 in 10.0 mi NE 20.7 mph 28.8 mph N/A   Partly Cloudy
6:54 PM 69.1 °F 59.0 °F 70% 30.11 in 10.0 mi NE 17.3 mph 33.4 mph N/A   Partly Cloudy
7:54 PM 68.0 °F 61.0 °F 78% 30.12 in 10.0 mi NE 19.6 mph 28.8 mph 0.00 in Rain Light Rain
8:54 PM 68.0 °F 61.0 °F 78% 30.13 in 10.0 mi NE 17.3 mph 31.1 mph 0.00 in   Partly Cloudy
9:54 PM 68.0 °F 60.1 °F 76% 30.15 in 10.0 mi NE 10.4 mph 18.4 mph 0.00 in   Scattered Clouds
10:54 PM 68.0 °F 61.0 °F 78% 30.13 in 10.0 mi NNE 11.5 mph - 0.00 in   Partly Cloudy
11:54 PM 68.0 °F 61.0 °F 78% 30.13 in 10.0 mi NE 11.5 mph 20.7 mph N/A   Clear